Location: Huntsville
(41.2590°N, 111.7678°W)
Time: 06:12:36
(UTC+00:00)

Courier 1B Rocket - Pass Details

Date: 23 June 2021
Orbit: 920 x 1202 km, 28.2° (Epoch: 01 August)

Event Time Altitude Azimuth Distance (km) Brightness Sun altitude
Rises 02:19:19 0° 243° (WSW) 3,883 8.7 6.5°
Reaches altitude 10° 02:22:35 10° 231° (SW) 2,876 7.9 5.9°
Maximum altitude 02:28:12 26° 178° (S) 1,860 6.3 5.0°
Drops below altitude 10° 02:33:32 10° 123° (ESE) 2,715 6.7 4.1°
Sets 02:36:32 0° 111° (ESE) 3,625 7.3 3.6°
